FW3706 Weather Reports


Display with metric or nautical units.
time (UTC)temp
F
wind
direction
speed
MPH
gust
MPH
rain 1hr
in
rain 24hr
in
rain mn
in
humidity
%
barometer
mb
20260831220507 79 65 0.0 5.0 0.00 0.67 0.67 75 1015.9
20260831220035 78 69 1.0 5.0 0.00 0.67 0.67 76 1016.1
20260831215504 78 72 0.0 5.0 0.01 0.67 0.67 78 1016.3
20260831215005 77 70 1.0 6.0 0.01 0.67 0.67 81 1016.3
20260831214532 75 360 2.0 6.0 0.01 0.67 0.67 89 1016.4
20260831214004 74 105 2.0 6.0 0.01 0.67 0.67 92 1016.4
20260831213504 73 10 1.0 3.0 0.02 0.67 0.67 94 1016.6
20260831213010 72 360 0.0 6.0 0.02 0.67 0.67 94 1016.7
20260831212506 71 360 2.0 6.0 0.03 0.67 0.67 94 1016.8
20260831212005 70 360 0.0 4.0 0.04 0.67 0.67 94 1017.0
20260831211513 70 360 1.0 6.0 0.05 0.67 0.67 94 1017.1
20260831211003 70 360 1.0 6.0 0.05 0.67 0.67 94 1017.2
20260831210503 70 360 1.0 6.0 0.05 0.67 0.67 94 1017.4
20260831210011 70 360 1.0 10.0 0.06 0.67 0.67 94 1017.6
20260831205507 70 360 3.0 10.0 0.05 0.66 0.66 94 1017.6
20260831205007 69 4 5.0 13.0 0.07 0.66 0.66 94 1017.5
20260831204511 69 4 5.0 13.0 0.09 0.66 0.66 94 1017.6
20260831204006 69 3 2.0 7.0 0.10 0.66 0.66 94 1018.0
20260831203505 69 4 2.0 7.0 0.09 0.65 0.65 94 1018.4
20260831203014 69 4 0.0 6.0 0.10 0.65 0.65 94 1018.7
20260831202508 69 4 2.0 9.0 0.10 0.64 0.64 94 1018.7
20260831202006 69 3 3.0 11.0 0.10 0.63 0.63 94 1018.8
20260831201526 69 3 1.0 11.0 0.10 0.62 0.62 93 1019.2
20260831201003 69 3 5.0 10.0 0.10 0.62 0.62 93 1019.1
20260831200507 69 4 4.0 9.0 0.11 0.62 0.62 93 1019.3
20260831200030 69 4 2.0 5.0 0.10 0.61 0.61 93 1019.5
20260831195506 69 4 2.0 5.0 0.12 0.61 0.61 93 1019.5
20260831195012 69 4 0.0 2.0 0.10 0.58 0.58 93 1019.8
20260831194514 69 4 0.0 2.0 0.09 0.57 0.57 93 1020.0
20260831194008 69 4 0.0 3.0 0.09 0.56 0.56 93 1020.1
20260831193508 69 4 0.0 5.0 0.09 0.56 0.56 93 1019.9
20260831193014 69 4 1.0 4.0 0.09 0.55 0.55 93 1020.0
20260831192512 69 4 1.0 4.0 0.11 0.54 0.54 93 1020.0
20260831192007 69 4 1.0 4.0 0.12 0.52 0.52 93 1020.0
20260831191515 69 8 0.0 2.0 0.13 0.52 0.52 93 1020.0
20260831191006 69 8 0.0 2.0 0.14 0.52 0.52 93 1019.9
20260831190509 69 8 0.0 3.0 0.18 0.51 0.51 93 1020.0
20260831190016 69 8 0.0 3.0 0.18 0.51 0.51 93 1020.1
20260831185508 69 8 0.0 3.0 0.16 0.49 0.49 93 1020.1
20260831185009 68 8 1.0 3.0 0.17 0.49 0.49 93 1020.2
20260831184522 68 8 0.0 3.0 0.16 0.48 0.48 93 1020.1
20260831184007 68 360 0.0 4.0 0.15 0.47 0.47 92 1020.1
20260831183507 68 9 0.0 4.0 0.18 0.47 0.47 92 1020.1
20260831183030 68 8 2.0 7.0 0.23 0.46 0.46 92 1020.3
20260831182505 68 8 3.0 7.0 0.22 0.43 0.43 91 1020.2
20260831182007 68 8 4.0 9.0 0.23 0.41 0.41 92 1020.5
20260831181519 68 7 3.0 13.0 0.23 0.39 0.39 92 1020.6
20260831181005 68 8 6.0 15.0 0.23 0.38 0.38 91 1020.1
20260831180508 68 8 10.0 15.0 0.18 0.33 0.33 91 1019.8
20260831180019 68 8 4.0 10.0 0.18 0.33 0.33 91 1020.1
20260831175505 68 8 3.0 10.0 0.19 0.33 0.33 90 1020.3
20260831175008 68 11 5.0 16.0 0.18 0.32 0.32 90 1020.0
20260831174522 69 9 5.0 16.0 0.18 0.32 0.32 89 1019.7
20260831174006 69 8 9.0 15.0 0.18 0.32 0.32 89 1019.7
20260831173508 69 8 8.0 14.0 0.15 0.29 0.29 88 1019.8
20260831173019 70 7 5.0 13.0 0.09 0.23 0.23 86 1020.0
20260831172503 70 8 6.0 13.0 0.07 0.21 0.21 85 1020.0
20260831172010 71 360 3.0 13.0 0.04 0.18 0.18 84 1019.6
20260831171520 72 360 8.0 14.0 0.02 0.16 0.16 82 1019.6
20260831171005 72 360 7.0 16.0 0.01 0.15 0.15 81 1019.8
20260831170508 73 8 6.0 16.0 0.01 0.15 0.15 79 1019.6
20260831170024 74 8 11.0 16.0 0.01 0.15 0.15 78 1019.2
20260831165504 75 8 5.0 14.0 0.00 0.14 0.14 77 1019.1
20260831165009 76 8 6.0 14.0 0.00 0.14 0.14 75 1019.1
20260831164519 77 8 7.0 14.0 0.00 0.14 0.14 71 1019.0
20260831164007 77 8 3.0 11.0 0.00 0.14 0.14 70 1018.9
20260831163509 77 8 2.0 4.0 0.00 0.14 0.14 72 1018.8
20260831163037 77 8 0.0 7.0 0.00 0.14 0.14 73 1018.6
20260831162510 77 8 1.0 7.0 0.00 0.14 0.14 73 1018.5
20260831162011 77 8 3.0 6.0 0.00 0.14 0.14 73 1018.3
20260831161520 77 8 2.0 8.0 0.00 0.14 0.14 74 1018.1
20260831161005 78 8 1.0 8.0 0.00 0.14 0.14 73 1018.2
20260831160511 78 13 1.0 3.0 0.00 0.14 0.14 73 1018.1
20260831160036 78 3 0.0 2.0 0.00 0.14 0.14 73 1018.0
20260831155505 78 3 0.0 5.0 0.00 0.14 0.14 73 1018.0
20260831155010 78 3 0.0 5.0 0.00 0.14 0.14 74 1017.8
20260831154552 78 4 3.0 8.0 0.00 0.14 0.14 74 1017.7
20260831154012 78 4 2.0 8.0 0.00 0.14 0.14 75 1017.6
20260831153512 77 8 1.0 5.0 0.00 0.14 0.14 77 1017.5
20260831153024 77 1 1.0 5.0 0.00 0.14 0.14 78 1017.5
20260831152508 76 5 0.0 3.0 0.00 0.14 0.14 78 1017.6
20260831152012 76 3 0.0 3.0 0.00 0.14 0.14 78 1017.6
20260831151524 75 3 0.0 3.0 0.00 0.14 0.14 79 1017.5
20260831151011 75 3 0.0 3.0 0.00 0.14 0.14 80 1017.3
20260831150517 75 3 0.0 3.0 0.00 0.14 0.14 81 1017.3
20260831150027 75 3 1.0 3.0 0.00 0.14 0.14 81 1017.3
20260831145508 75 3 1.0 4.0 0.00 0.14 0.14 82 1017.1
20260831145011 74 3 2.0 4.0 0.00 0.14 0.14 83 1017.0
20260831144525 74 360 0.0 4.0 0.00 0.14 0.14 84 1017.0
20260831144004 73 360 0.0 4.0 0.00 0.14 0.14 84 1016.8
20260831143512 73 7 0.0 6.0 0.00 0.14 0.14 84 1016.8
20260831143024 73 360 3.0 8.0 0.00 0.14 0.14 84 1016.6
20260831142506 73 4 3.0 7.0 0.00 0.14 0.14 84 1016.6
20260831142018 73 3 2.0 7.0 0.00 0.14 0.14 84 1016.6
20260831141528 73 360 3.0 7.0 0.00 0.14 0.14 83 1016.7
20260831141012 73 11 1.0 8.0 0.00 0.14 0.14 82 1016.7
20260831140513 73 360 3.0 8.0 0.00 0.14 0.14 81 1016.6
20260831140033 74 360 3.0 11.0 0.00 0.14 0.14 79 1016.4
20260831135512 74 360 4.0 13.0 0.00 0.14 0.14 77 1016.4
20260831135013 74 360 4.0 14.0 0.01 0.14 0.14 74 1016.3
20260831134520 74 360 6.0 14.0 0.01 0.14 0.14 75 1016.1
20260831134011 73 360 5.0 14.0 0.01 0.14 0.14 77 1016.2
20260831133511 72 360 5.0 12.0 0.01 0.14 0.14 79 1016.3
20260831133035 72 15 4.0 17.0 0.01 0.14 0.14 81 1016.3
20260831132512 71 360 5.0 17.0 0.01 0.14 0.14 83 1016.4
20260831132012 70 360 6.0 11.0 0.01 0.14 0.14 85 1016.3
20260831131530 70 360 3.0 9.0 0.01 0.14 0.14 87 1016.5
20260831131011 70 360 3.0 10.0 0.02 0.14 0.14 87 1016.5
20260831130516 69 360 5.0 10.0 0.04 0.14 0.14 88 1016.8
20260831130037 69 360 4.0 16.0 0.04 0.14 0.14 89 1017.1
20260831125512 69 360 5.0 16.0 0.05 0.14 0.14 89 1016.8
20260831125014 69 360 7.0 15.0 0.05 0.13 0.13 90 1016.6
20260831124531 69 9 7.0 13.0 0.06 0.13 0.13 90 1017.0
20260831124015 69 8 4.0 9.0 0.07 0.13 0.13 90 1017.7
20260831123512 69 10 5.0 11.0 0.10 0.13 0.13 90 1017.8
20260831123026 69 9 6.0 11.0 0.11 0.13 0.13 90 1017.5
20260831122518 70 9 4.0 12.0 0.13 0.13 0.13 90 1017.4
20260831122013 69 8 4.0 12.0 0.13 0.13 0.13 89 1017.1
20260831121524 70 9 6.0 12.0 0.13 0.13 0.13 89 1017.1
20260831121014 70 9 3.0 12.0 0.12 0.12 0.12 89 1017.4
20260831120514 70 8 6.0 13.0 0.10 0.10 0.10 88 1017.3
20260831120049 70 8 5.0 13.0 0.10 0.10 0.10 88 1017.4
20260831115524 70 8 3.0 11.0 0.09 0.09 0.09 87 1017.2
20260831115012 71 8 4.0 10.0 0.08 0.08 0.08 86 1017.0
20260831114524 71 8 4.0 11.0 0.07 0.07 0.07 85 1016.9
20260831114015 72 9 5.0 14.0 0.06 0.06 0.06 83 1016.6
20260831113516 72 8 7.0 16.0 0.03 0.03 0.03 80 1016.4
20260831113024 74 8 6.0 18.0 0.02 0.02 0.02 75 1016.4
20260831112516 76 7 6.0 18.0 0.00 0.00 0.00 70 1016.0
20260831112014 78 8 10.0 18.0 0.00 0.00 0.00 63 1015.6
20260831111524 80 360 9.0 20.0 0.00 0.00 0.00 60 1015.5
20260831111013 81 8 9.0 20.0 0.00 0.00 0.00 57 1015.4
20260831110514 82 360 5.0 10.0 0.00 0.00 0.00 55 1015.1
20260831110027 82 360 2.0 5.0 0.00 0.00 0.00 56 1014.8
20260831105514 82 11 0.0 2.0 0.00 0.00 0.00 56 1014.5
20260831105016 82 360 0.0 2.0 0.00 0.00 0.00 56 1014.3
20260831104523 82 360 0.0 1.0 0.00 0.00 0.00 56 1014.2
20260831104016 82 360 0.0 2.0 0.00 0.00 0.00 56 1014.1
20260831103513 82 360 0.0 2.0 0.00 0.00 0.00 55 1014.0
20260831103025 82 360 0.0 0.0 0.00 0.00 0.00 55 1014.0
20260831102515 82 360 0.0 1.0 0.00 0.00 0.00 55 1013.8
20260831102017 82 8 0.0 1.0 0.00 0.00 0.00 54 1013.8
20260831101524 82 11 0.0 2.0 0.00 0.00 0.00 54 1013.8
20260831101014 82 11 0.0 2.0 0.00 0.00 0.00 54 1013.8
20260831100512 82 360 0.0 2.0 0.00 0.00 0.00 54 1013.9
20260831100022 82 360 0.0 1.0 0.00 0.00 0.00 53 1013.9
20260831095516 82 360 0.0 1.0 0.00 0.00 0.00 54 1013.9
20260831095018 82 360 0.0 2.0 0.00 0.00 0.00 54 1013.8
20260831094523 82 360 0.0 2.0 0.00 0.00 0.00 54 1013.8
20260831094016 82 360 0.0 2.0 0.00 0.00 0.00 54 1013.8
20260831093514 82 8 1.0 2.0 0.00 0.00 0.00 54 1013.7
20260831093028 82 8 0.0 0.0 0.00 0.00 0.00 54 1013.7
20260831092503 82 8 0.0 0.0 0.00 0.00 0.00 54 1013.6
20260831092004 82 7 0.0 0.0 0.00 0.00 0.00 53 1013.7
20260831091601 82 7 0.0 0.0 0.00 0.00 0.00 53 1013.7
20260831091006 82 7 0.0 0.0 0.00 0.00 0.00 53 1013.8
20260831090501 82 7 0.0 0.0 0.00 0.00 0.00 53 1013.8
20260831090051 82 7 0.0 0.0 0.00 0.00 0.00 52 1013.9
20260831085503 82 7 0.0 0.0 0.00 0.00 0.00 53 1013.9
20260831085015 82 7 0.0 0.0 0.00 0.00 0.00 53 1013.9
20260831084528 83 7 0.0 2.0 0.00 0.00 0.00 53 1013.9
20260831084003 83 7 0.0 2.0 0.00 0.00 0.00 53 1013.9
20260831083500 83 7 0.0 0.0 0.00 0.00 0.00 52 1013.9
20260831083027 83 7 0.0 0.0 0.00 0.00 0.00 52 1013.9
20260831082504 83 8 0.0 0.0 0.00 0.00 0.00 52 1013.9
20260831082016 83 8 0.0 0.0 0.00 0.00 0.00 51 1014.0
20260831081523 84 8 0.0 0.0 0.00 0.00 0.00 51 1013.9
20260831081004 84 8 0.0 1.0 0.00 0.00 0.00 50 1014.0
20260831080516 84 7 0.0 2.0 0.00 0.00 0.00 50 1014.0
20260831080033 84 8 0.0 2.0 0.00 0.00 0.00 50 1013.9
20260831075517 84 8 0.0 1.0 0.00 0.00 0.00 50 1014.0
20260831075013 84 8 0.0 1.0 0.00 0.00 0.00 50 1014.0
20260831074524 84 7 0.0 2.0 0.00 0.00 0.00 50 1014.1
20260831074006 84 7 0.0 2.0 0.00 0.00 0.00 49 1014.2
20260831073513 84 7 0.0 2.0 0.00 0.00 0.00 49 1014.2
20260831073024 85 7 0.0 2.0 0.00 0.00 0.00 49 1014.1
20260831072505 85 7 0.0 0.0 0.00 0.00 0.00 48 1014.0
20260831072017 85 8 0.0 2.0 0.00 0.00 0.00 48 1014.0
20260831071523 85 8 0.0 2.0 0.00 0.00 0.00 48 1014.1
20260831071004 85 7 0.0 2.0 0.00 0.00 0.00 47 1014.1
20260831070519 85 7 0.0 3.0 0.00 0.00 0.00 47 1014.0
20260831070035 86 7 1.0 3.0 0.00 0.00 0.00 47 1014.1
20260831065502 86 7 0.0 4.0 0.00 0.00 0.00 47 1014.2
20260831065013 86 7 2.0 4.0 0.00 0.00 0.00 47 1014.2
20260831064534 86 7 2.0 4.0 0.00 0.00 0.00 47 1014.3
20260831064008 86 7 1.0 4.0 0.00 0.00 0.00 46 1014.3
20260831063513 86 8 1.0 6.0 0.00 0.00 0.00 47 1014.3
20260831063025 86 8 2.0 6.0 0.00 0.00 0.00 47 1014.3
20260831062504 86 8 1.0 4.0 0.00 0.00 0.00 47 1014.3
20260831062014 86 8 1.0 3.0 0.00 0.00 0.00 47 1014.3
20260831061529 86 8 0.0 2.0 0.00 0.00 0.00 47 1014.3
20260831061004 86 8 0.0 2.0 0.00 0.00 0.00 47 1014.3
20260831060516 86 8 0.0 2.0 0.00 0.00 0.00 46 1014.4
20260831060027 86 8 0.0 1.0 0.00 0.00 0.00 45 1014.3
20260831055503 87 8 0.0 2.0 0.00 0.00 0.00 45 1014.3
20260831055016 87 8 0.0 4.0 0.00 0.00 0.00 45 1014.3
20260831054524 87 9 0.0 5.0 0.00 0.00 0.00 45 1014.3
20260831054006 87 360 2.0 6.0 0.00 0.00 0.00 45 1014.3
20260831053516 87 360 1.0 6.0 0.00 0.00 0.00 44 1014.3
20260831053030 87 360 1.0 6.0 0.00 0.00 0.00 43 1014.2
20260831052506 87 360 3.0 7.0 0.00 0.00 0.00 43 1014.0
20260831052014 87 360 2.0 7.0 0.00 0.00 0.00 43 1013.9
20260831051525 87 360 2.0 7.0 0.00 0.00 0.00 43 1013.8
20260831051004 87 360 1.0 7.0 0.00 0.00 0.00 43 1013.8
20260831050512 87 360 2.0 8.0 0.00 0.00 0.00 42 1013.7
20260831050028 88 360 4.0 8.0 0.00 0.00 0.00 42 1013.8
20260831045506 88 11 3.0 10.0 0.00 0.00 0.00 42 1013.9
20260831045015 88 360 5.0 10.0 0.00 0.00 0.00 42 1013.9
20260831044524 88 360 3.0 9.0 0.00 0.00 0.00 42 1013.9
20260831044004 88 11 3.0 7.0 0.00 0.00 0.00 42 1013.9
20260831043515 88 360 3.0 6.0 0.00 0.00 0.00 42 1013.9
20260831043020 88 360 1.0 7.0 0.00 0.00 0.00 42 1013.9
20260831042506 88 360 2.0 8.0 0.00 0.00 0.00 42 1013.9
20260831042017 88 11 3.0 8.0 0.00 0.00 0.00 42 1013.9
20260831041520 88 11 5.0 8.0 0.00 0.00 0.00 42 1013.8
20260831041006 88 360 3.0 8.0 0.00 0.00 0.00 42 1013.8
20260831040514 88 11 3.0 8.0 0.00 0.00 0.00 42 1013.8
20260831040022 88 360 3.0 9.0 0.00 0.00 0.00 42 1013.8
20260831035508 88 360 4.0 9.0 0.00 0.00 0.00 42 1013.8
20260831035013 88 360 2.0 9.0 0.00 0.00 0.00 41 1013.7
20260831034519 88 360 3.0 9.0 0.00 0.00 0.00 41 1013.7
20260831034006 89 360 3.0 8.0 0.00 0.00 0.00 41 1013.6
20260831033514 89 360 3.0 8.0 0.00 0.00 0.00 40 1013.6
20260831033020 89 11 3.0 8.0 0.00 0.00 0.00 40 1013.5
20260831032516 89 10 5.0 9.0 0.00 0.00 0.00 40 1013.5
20260831032017 89 8 4.0 10.0 0.00 0.00 0.00 40 1013.4
20260831031518 90 8 4.0 12.0 0.00 0.00 0.00 40 1013.2
20260831031016 90 9 6.0 12.0 0.00 0.00 0.00 40 1013.0
20260831030513 90 360 6.0 13.0 0.00 0.00 0.00 40 1012.8
20260831030019 90 8 7.0 13.0 0.00 0.00 0.00 40 1012.6
20260831025504 90 8 3.0 9.0 0.00 0.00 0.00 39 1012.5
20260831025015 91 8 4.0 13.0 0.00 0.00 0.00 39 1012.4
20260831024518 91 8 6.0 13.0 0.00 0.00 0.00 39 1012.4
20260831024006 91 6 5.0 18.0 0.00 0.00 0.00 38 1012.3
20260831023516 92 7 7.0 18.0 0.00 0.00 0.00 37 1012.1
20260831023022 93 7 7.0 12.0 0.00 0.00 0.00 37 1011.9
20260831022516 93 8 4.0 10.0 0.00 0.00 0.00 36 1011.8
20260831022012 94 240 3.0 10.0 0.00 0.00 0.00 36 1011.5
20260831021526 94 235 2.0 10.0 0.00 0.00 0.00 36 1011.4
20260831021008 94 258 4.0 10.0 0.00 0.00 0.00 35 1011.3
20260831020512 95 248 4.0 7.0 0.00 0.00 0.00 34 1011.3
20260831020023 95 274 2.0 7.0 0.00 0.00 0.00 34 1011.2
20260831015518 95 261 3.0 7.0 0.00 0.00 0.00 34 1011.2
20260831015013 95 261 2.0 6.0 0.00 0.00 0.00 33 1011.1
20260831014528 95 263 2.0 6.0 0.00 0.00 0.00 33 1011.2
20260831014005 95 270 3.0 6.0 0.00 0.00 0.00 33 1011.2
20260831013512 95 272 3.0 7.0 0.00 0.00 0.00 33 1011.1
20260831013021 95 283 3.0 7.0 0.00 0.00 0.00 32 1011.1
20260831012506 96 275 3.0 6.0 0.00 0.00 0.00 32 1011.1
20260831012014 96 262 3.0 6.0 0.00 0.00 0.00 32 1011.2
20260831011528 96 262 3.0 7.0 0.00 0.00 0.00 32 1011.1
20260831011015 96 271 1.0 7.0 0.00 0.01 0.00 31 1011.1
20260831010514 96 245 2.0 7.0 0.00 0.03 0.00 31 1011.2
20260831010024 96 273 3.0 8.0 0.00 0.05 0.00 31 1011.1
20260831005504 96 270 2.0 8.0 0.00 0.05 0.00 31 1011.1
20260831005015 97 260 2.0 7.0 0.00 0.05 0.00 31 1011.1
20260831004532 97 264 2.0 6.0 0.00 0.05 0.00 31 1011.1
20260831004018 97 262 2.0 5.0 0.00 0.05 0.00 30 1011.0
20260831003520 97 278 1.0 7.0 0.00 0.05 0.00 31 1011.0
20260831003028 97 264 2.0 7.0 0.00 0.05 0.00 31 1011.1
20260831002518 97 202 2.0 6.0 0.00 0.05 0.00 30 1011.1
20260831002018 97 255 2.0 6.0 0.00 0.05 0.00 30 1011.2
20260831001518 97 256 2.0 6.0 0.00 0.05 0.00 30 1011.2
20260831001017 97 263 1.0 5.0 0.00 0.05 0.00 30 1011.2
20260831000515 97 259 2.0 8.0 0.00 0.05 0.00 30 1011.2
20260831000021 97 265 3.0 8.0 0.00 0.05 0.00 30 1011.2
20260830235506 98 248 3.0 7.0 0.00 0.05 0.00 30 1011.1
20260830235011 98 259 2.0 6.0 0.00 0.05 0.00 30 1011.1
20260830234534 98 283 2.0 6.0 0.00 0.05 0.00 30 1011.1
20260830234004 98 210 1.0 6.0 0.00 0.05 0.00 30 1011.0
20260830233514 98 207 3.0 6.0 0.00 0.05 0.00 29 1011.1
20260830233035 99 240 2.0 8.0 0.00 0.05 0.00 29 1011.3
20260830232518 99 259 3.0 10.0 0.00 0.05 0.00 29 1011.3
20260830232014 99 258 4.0 12.0 0.00 0.05 0.00 29 1011.4
20260830231534 99 255 6.0 12.0 0.00 0.05 0.00 30 1011.4
20260830231017 99 231 4.0 11.0 0.00 0.05 0.00 29 1011.5
20260830230512 100 243 4.0 12.0 0.00 0.05 0.00 29 1011.5
20260830230022 101 230 7.0 10.0 0.00 0.05 0.00 28 1011.6
20260830225504 101 330 3.0 7.0 0.00 0.05 0.00 29 1011.7
20260830225012 101 159 1.0 4.0 0.00 0.05 0.00 28 1011.8
20260830224520 100 283 1.0 8.0 0.00 0.05 0.00 29 1012.0
20260830224006 100 287 3.0 8.0 0.00 0.05 0.00 30 1012.0
20260830223517 101 301 4.0 7.0 0.00 0.05 0.00 28 1012.1
20260830223032 102 311 1.0 6.0 0.00 0.05 0.00 28 1012.2
20260830222516 101 230 2.0 9.0 0.00 0.05 0.00 29 1012.3
20260830222015 101 266 4.0 9.0 0.00 0.05 0.00 28 1012.4
20260830221543 102 246 4.0 9.0 0.00 0.05 0.00 28 1012.4
20260830221017 102 259 2.0 8.0 0.00 0.05 0.00 28 1012.5